| time (UTC) | temp C | wind direction | speed KPH | gust KPH | rain 1hr cm | rain 24hr cm | rain mn cm | humidity % | barometer mb |
| 20260506201738 | 15 | 334 | 4.8 | 17.7 | 0.00 | 0.00 | 0.79 | 93 | |
| 20260506200738 | 15 | 227 | 6.4 | 19.3 | 0.00 | 0.00 | 0.79 | 93 | |
| 20260506195738 | 15 | 234 | 14.5 | 22.5 | 0.00 | 0.00 | 0.79 | 93 | |
| 20260506194738 | 15 | 195 | 8.0 | 24.1 | 0.00 | 0.00 | 0.79 | 93 | |
| 20260506193738 | 15 | 155 | 3.2 | 20.9 | 0.00 | 0.00 | 0.79 | 93 | |
| 20260506192738 | 15 | 244 | 6.4 | 27.4 | 0.00 | 0.00 | 0.79 | 93 | |
| 20260506191739 | 15 | 238 | 9.7 | 22.5 | 0.00 | 0.00 | 0.79 | 94 | |
| 20260506190738 | 15 | 267 | 19.3 | 27.4 | 0.00 | 0.00 | 0.76 | 93 | |
| 20260506185738 | 15 | 245 | 4.8 | 24.1 | 0.00 | 0.00 | 0.76 | 93 | |
| 20260506184738 | 15 | 248 | 8.0 | 24.1 | 0.00 | 0.00 | 0.76 | 94 | |
| 20260506183739 | 15 | 237 | 16.1 | 17.7 | 0.00 | 0.00 | 0.76 | 94 | |
| 20260506182738 | 15 | 286 | 1.6 | 22.5 | 0.00 | 0.00 | 0.76 | 94 | |
| 20260506181738 | 15 | 248 | 8.0 | 22.5 | 0.00 | 0.00 | 0.76 | 94 | |
| 20260506180738 | 15 | 234 | 11.3 | 20.9 | 0.00 | 0.00 | 0.76 | 94 | |
| 20260506175738 | 15 | 245 | 12.9 | 16.1 | 0.00 | 0.00 | 0.76 | 94 | |
| 20260506174738 | 15 | 257 | 4.8 | 19.3 | 0.00 | 0.00 | 0.76 | 95 | |
| 20260506173738 | 15 | 215 | 8.0 | 14.5 | 0.00 | 0.00 | 0.76 | 95 | |
| 20260506172739 | 15 | 210 | 6.4 | 11.3 | 0.00 | 0.00 | 0.76 | 95 | |
| 20260506171738 | 15 | 237 | 4.8 | 17.7 | 0.00 | 0.00 | 0.74 | 94 | |
| 20260506170738 | 15 | 242 | 0.0 | 14.5 | 0.00 | 0.00 | 0.71 | 94 | |
| 20260506165738 | 15 | 230 | 8.0 | 14.5 | 0.00 | 0.00 | 0.69 | 94 | |
| 20260506164738 | 15 | 252 | 1.6 | 9.7 | 0.00 | 0.00 | 0.66 | 93 | |
| 20260506163738 | 15 | 259 | 3.2 | 11.3 | 0.00 | 0.00 | 0.61 | 93 | |
| 20260506162738 | 15 | 219 | 9.7 | 11.3 | 0.00 | 0.00 | 0.61 | 93 | |
| 20260506161738 | 15 | 250 | 1.6 | 9.7 | 0.00 | 0.00 | 0.61 | 93 | |
| 20260506160739 | 15 | 277 | 4.8 | 8.0 | 0.00 | 0.00 | 0.61 | 92 | |
| 20260506155738 | 15 | 229 | 3.2 | 11.3 | 0.00 | 0.00 | 0.58 | 92 | |
| 20260506154738 | 15 | 236 | 3.2 | 9.7 | 0.00 | 0.00 | 0.53 | 92 | |
| 20260506153738 | 15 | 226 | 4.8 | 12.9 | 0.00 | 0.00 | 0.48 | 92 | |
| 20260506152738 | 15 | 248 | 3.2 | 11.3 | 0.00 | 0.00 | 0.43 | 92 | |
| 20260506151738 | 15 | 206 | 1.6 | 12.9 | 0.00 | 0.00 | 0.41 | 92 | |
| 20260506150738 | 15 | 238 | 0.0 | 11.3 | 0.00 | 0.00 | 0.41 | 92 | |
| 20260506145738 | 15 | 239 | 3.2 | 4.8 | 0.00 | 0.00 | 0.38 | 92 | |
| 20260506144738 | 15 | 223 | 4.8 | 8.0 | 0.00 | 0.00 | 0.36 | 92 | |
| 20260506143738 | 15 | 227 | 1.6 | 6.4 | 0.00 | 0.00 | 0.36 | 92 | |
| 20260506142738 | 15 | 225 | 1.6 | 3.2 | 0.00 | 0.00 | 0.36 | 92 | |
| 20260506141738 | 14 | 226 | 0.0 | 1.6 | 0.00 | 0.00 | 0.33 | 91 | |
| 20260506140738 | 14 | 226 | 1.6 | 4.8 | 0.00 | 0.00 | 0.28 | 90 | |
| 20260506135738 | 14 | 209 | 1.6 | 6.4 | 0.00 | 0.00 | 0.25 | 90 | |
| 20260506134738 | 14 | 250 | 1.6 | 8.0 | 0.00 | 0.00 | 0.20 | 90 | |
| 20260506133738 | 14 | 225 | 1.6 | 8.0 | 0.00 | 0.00 | 0.18 | 89 | |
| 20260506132738 | 15 | 254 | 4.8 | 11.3 | 0.00 | 0.00 | 0.15 | 88 | |
| 20260506131738 | 15 | 261 | 3.2 | 11.3 | 0.00 | 0.00 | 0.13 | 87 | |
| 20260506130738 | 15 | 246 | 1.6 | 11.3 | 0.00 | 0.00 | 0.08 | 87 | |
| 20260506125738 | 15 | 200 | 3.2 | 16.1 | 0.00 | 0.00 | 0.05 | 86 | |
| 20260506124738 | 15 | 188 | 4.8 | 14.5 | 0.00 | 0.00 | 0.03 | 86 | |
| 20260506123738 | 13 | 212 | 1.6 | 8.0 | 0.00 | 0.00 | 0.00 | 86 | |
| 20260506122738 | 13 | 186 | 0.0 | 0.0 | 0.00 | 0.00 | 0.00 | 85 | |
| 20260506121738 | 13 | 186 | 0.0 | 0.0 | 0.00 | 0.00 | 0.00 | 84 | |
| 20260506120738 | 13 | 186 | 0.0 | 0.0 | 0.00 | 0.00 | 0.00 | 82 | |
| 20260506115738 | 13 | 186 | 0.0 | 0.0 | 0.00 | 0.00 | 0.00 | 83 | |
| 20260506114737 | 13 | 186 | 0.0 | 0.0 | 0.00 | 0.00 | 0.00 | 83 | |
| 20260506113737 | 13 | 186 | 0.0 | 0.0 | 0.00 | 0.00 | 0.00 | 83 | |
| 20260506112738 | 12 | 186 | 0.0 | 0.0 | 0.00 | 0.00 | 0.00 | 83 | |
| 20260506111738 | 12 | 186 | 0.0 | 0.0 | 0.00 | 0.00 | 0.00 | 83 | |
| 20260506110738 | 12 | 186 | 0.0 | 0.0 | 0.00 | 0.00 | 0.00 | 83 | |
| 20260506105738 | 12 | 186 | 0.0 | 0.0 | 0.00 | 0.00 | 0.00 | 83 | |
| 20260506104737 | 12 | 186 | 0.0 | 1.6 | 0.00 | 0.00 | 0.00 | 83 | |
| 20260506103739 | 12 | 186 | 0.0 | 1.6 | 0.00 | 0.00 | 0.00 | 82 | |
| 20260506102737 | 12 | 186 | 1.6 | 3.2 | 0.00 | 0.00 | 0.00 | 82 | |
| 20260506101738 | 12 | 186 | 1.6 | 1.6 | 0.00 | 0.00 | 0.00 | 82 | |
| 20260506100738 | 12 | 179 | 0.0 | 0.0 | 0.00 | 0.00 | 0.00 | 82 | |
| 20260506095737 | 12 | 182 | 0.0 | 0.0 | 0.00 | 0.00 | 0.00 | 83 | |
| 20260506094737 | 12 | 182 | 0.0 | 0.0 | 0.00 | 0.00 | 0.00 | 83 | |
| 20260506093737 | 12 | 182 | 0.0 | 0.0 | 0.00 | 0.00 | 0.00 | 82 | |
| 20260506092737 | 12 | 182 | 0.0 | 0.0 | 0.00 | 0.00 | 0.00 | 82 | |
| 20260506091738 | 12 | 182 | 0.0 | 0.0 | 0.00 | 0.00 | 0.00 | 82 | |
| 20260506090739 | 12 | 182 | 0.0 | 0.0 | 0.00 | 0.00 | 0.00 | 82 | |
| 20260506084737 | 12 | 182 | 0.0 | 0.0 | 0.00 | 0.00 | 0.00 | 82 | |
| 20260506083737 | 12 | 182 | 0.0 | 0.0 | 0.00 | 0.00 | 0.00 | 81 | |
| 20260506082737 | 12 | 182 | 0.0 | 0.0 | 0.00 | 0.00 | 0.00 | 81 | |
| 20260506081737 | 12 | 182 | 0.0 | 0.0 | 0.00 | 0.00 | 0.00 | 81 | |
| 20260506080737 | 12 | 182 | 0.0 | 0.0 | 0.00 | 0.00 | 0.00 | 81 | |
| 20260506072737 | 12 | 183 | 0.0 | 0.0 | 0.00 | 0.00 | 0.00 | 82 | |
| 20260506071737 | 12 | 184 | 0.0 | 0.0 | 0.00 | 0.00 | 0.00 | 81 | |
| 20260506070737 | 12 | 184 | 0.0 | 0.0 | 0.00 | 0.00 | 0.00 | 81 | |
| 20260506061737 | 12 | 180 | 1.6 | 1.6 | 0.00 | 0.00 | 0.00 | 81 | |
| 20260506060737 | 12 | 180 | 0.0 | 3.2 | 0.00 | 0.00 | 0.00 | 80 | |
| 20260506050737 | 12 | 221 | 0.0 | 3.2 | 0.00 | 0.00 | 0.00 | 78 | |
| 20260506044738 | 13 | 221 | 0.0 | 1.6 | 0.00 | 0.00 | 0.00 | 76 | |
| 20260506043737 | 13 | 221 | 1.6 | 3.2 | 0.00 | 0.00 | 0.00 | 74 | |
| 20260506042738 | 13 | 221 | 0.0 | 3.2 | 0.00 | 0.00 | 0.00 | 73 | |
| 20260506041737 | 13 | 221 | 1.6 | 3.2 | 0.00 | 0.00 | 0.00 | 73 | |
| 20260506040738 | 14 | 221 | 1.6 | 3.2 | 0.00 | 0.00 | 0.00 | 72 | |
| 20260506035737 | 14 | 221 | 0.0 | 3.2 | 0.00 | 0.00 | 0.00 | 71 | |
| 20260506034737 | 14 | 221 | 0.0 | 3.2 | 0.00 | 0.00 | 0.00 | 70 | |
| 20260506033737 | 15 | 221 | 0.0 | 0.0 | 0.00 | 0.00 | 0.00 | 69 | |
| 20260506032737 | 15 | 221 | 0.0 | 0.0 | 0.00 | 0.00 | 0.00 | 68 | |
| 20260506031738 | 15 | 221 | 0.0 | 0.0 | 0.00 | 0.00 | 0.00 | 66 | |
| 20260506030738 | 16 | 221 | 0.0 | 3.2 | 0.00 | 0.00 | 0.00 | 65 | |
| 20260506025737 | 16 | 221 | 1.6 | 3.2 | 0.00 | 0.00 | 0.00 | 65 | |
| 20260506024738 | 17 | 221 | 0.0 | 0.0 | 0.00 | 0.00 | 0.00 | 63 | |
| 20260506023737 | 17 | 221 | 0.0 | 0.0 | 0.00 | 0.00 | 0.00 | 62 | |
| 20260506022737 | 18 | 221 | 0.0 | 0.0 | 0.00 | 0.00 | 0.00 | 60 | |
| 20260506021737 | 18 | 221 | 0.0 | 3.2 | 0.00 | 0.00 | 0.00 | 59 | |
| 20260506020737 | 18 | 221 | 0.0 | 3.2 | 0.00 | 0.00 | 0.00 | 59 | |
| 20260506015738 | 18 | 221 | 0.0 | 4.8 | 0.00 | 0.00 | 0.00 | 59 | |
| 20260506014737 | 18 | 225 | 1.6 | 3.2 | 0.00 | 0.00 | 0.00 | 58 | |
| 20260506013737 | 19 | 225 | 3.2 | 3.2 | 0.00 | 0.00 | 0.00 | 57 | |
| 20260506012737 | 20 | 225 | 0.0 | 3.2 | 0.00 | 0.00 | 0.00 | 56 | |
| 20260506011737 | 20 | 224 | 1.6 | 4.8 | 0.00 | 0.00 | 0.00 | 54 | |
| 20260506010737 | 20 | 236 | 3.2 | 3.2 | 0.00 | 0.00 | 0.00 | 54 | |
| 20260506005737 | 21 | 236 | 1.6 | 3.2 | 0.00 | 0.00 | 0.00 | 52 | |
| 20260506004737 | 21 | 236 | 0.0 | 6.4 | 0.00 | 0.00 | 0.00 | 50 | |
| 20260506003738 | 21 | 200 | 3.2 | 6.4 | 0.00 | 0.00 | 0.00 | 51 | |
| 20260506002737 | 21 | 210 | 1.6 | 8.0 | 0.00 | 0.00 | 0.00 | 50 | |
| 20260506001738 | 21 | 219 | 0.0 | 6.4 | 0.00 | 0.00 | 0.00 | 48 | |
| 20260506000737 | 21 | 217 | 3.2 | 8.0 | 0.00 | 0.00 | 0.00 | 49 | |
| 20260505235737 | 21 | 217 | 1.6 | 6.4 | 0.00 | 0.00 | 0.00 | 51 | |
| 20260505234737 | 22 | 237 | 3.2 | 11.3 | 0.00 | 0.00 | 0.00 | 50 | |
| 20260505233737 | 21 | 221 | 1.6 | 8.0 | 0.00 | 0.00 | 0.00 | 51 | |
| 20260505232737 | 21 | 209 | 1.6 | 8.0 | 0.00 | 0.00 | 0.00 | 52 | |
| 20260505231737 | 21 | 227 | 1.6 | 4.8 | 0.00 | 0.00 | 0.00 | 55 | |
| 20260505230737 | 22 | 231 | 4.8 | 4.8 | 0.00 | 0.00 | 0.00 | 54 | |
| 20260505225737 | 22 | 233 | 4.8 | 8.0 | 0.00 | 0.00 | 0.00 | 50 | |
| 20260505224738 | 22 | 232 | 4.8 | 11.3 | 0.00 | 0.00 | 0.00 | 49 | |
| 20260505223737 | 22 | 264 | 1.6 | 4.8 | 0.00 | 0.00 | 0.00 | 49 | |
| 20260505222737 | 22 | 257 | 3.2 | 14.5 | 0.00 | 0.00 | 0.00 | 48 | |
| 20260505221737 | 22 | 210 | 1.6 | 17.7 | 0.00 | 0.00 | 0.00 | 47 | |
| 20260505220737 | 22 | 238 | 3.2 | 12.9 | 0.00 | 0.00 | 0.00 | 47 | |
| 20260505215737 | 22 | 225 | 16.1 | 16.1 | 0.00 | 0.00 | 0.00 | 46 | |
| 20260505214737 | 23 | 242 | 4.8 | 20.9 | 0.00 | 0.00 | 0.00 | 44 | |
| 20260505213737 | 23 | 207 | 3.2 | 14.5 | 0.00 | 0.00 | 0.00 | 44 | |
| 20260505212737 | 23 | 234 | 8.0 | 22.5 | 0.00 | 0.00 | 0.00 | 42 | |
| 20260505211737 | 24 | 225 | 11.3 | 30.6 | 0.00 | 0.00 | 0.00 | 42 | |
| 20260505210737 | 25 | 249 | 12.9 | 43.5 | 0.00 | 0.00 | 0.00 | 40 | |
| 20260505205737 | 25 | 201 | 24.1 | 59.5 | 0.00 | 0.00 | 0.00 | 37 | |
| 20260505204737 | 25 | 238 | 12.9 | 29.0 | 0.00 | 0.00 | 0.00 | 36 | |
| 20260505203737 | 25 | 243 | 14.5 | 29.0 | 0.00 | 0.00 | 0.00 | 35 | |
| 20260505202738 | 25 | 267 | 17.7 | 35.4 | 0.00 | 0.00 | 0.00 | 34 |